This demonstration page uses our WeatherBlox Daily Observations layout. Learn more.

Left ArrowRight Arrow

39.01783, -85.05884

Hourly Observations for October 4, 2020

Temp ( °F °C ) Dew Point ( °F °C ) Humidity (%) Winds ( mph kmh ) Pressure ( in mb ) Visibility ( mi km ) Precip ( " mm )
12:52 am 00:52 Cloudy 55 12.8 46 7.8 72 72 NNW 3 6 30.14 1021 10 16.0934 0.001 0.001
1:52 am 01:52 Mostly Cloudy 52 11.1 46 7.8 80 80 Calm 30.14 1021 10 16.0934 0 0
2:52 am 02:52 Cloudy 52 11.1 47 8.3 83 83 Calm 30.13 1020 10 16.0934 0 0
3:52 am 03:52 Cloudy 52 11.1 47 8.3 83 83 S 5 7 30.12 1020 10 16.0934 0 0
4:52 am 04:52 Mostly Cloudy 53 11.7 47 8.3 80 80 Calm 30.1 1019 10 16.0934 0 0
5:52 am 05:52 Cloudy 52 11.1 45 7.2 77 77 ESE 3 6 30.1 1019 10 16.0934 0 0
6:52 am 06:52 Cloudy 52 11.1 45 7.2 77 77 SSE 3 6 30.1 1019 10 16.0934 0 0
7:52 am 07:52 Cloudy 52 11.1 44 6.7 75 75 SSE 5 7 30.1 1019 10 16.0934 0 0
8:52 am 08:52 Cloudy 54 12.2 46 7.8 75 75 SSE 5 7 30.09 1019 10 16.0934 0 0
9:52 am 09:52 Cloudy 58 14.4 45 7.2 62 62 S 9 15 30.09 1019 10 16.0934 0 0
10:52 am 10:52 Mostly Cloudy 59 15 45 7.2 60 60 SSW 10 17 30.08 1019 10 16.0934 0 0
11:52 am 11:52 Partly Cloudy 65 18.3 46 7.8 51 51 SSW 10 17 30.07 1018 10 16.0934 0 0
12:52 pm 12:52 Mostly Cloudy 67 19.4 47 8.3 49 49 SSW 14 22 30.06 1018 10 16.0934 0 0
1:52 pm 13:52 Cloudy 65 18.3 47 8.3 52 52 SSW 13 20 30.05 1018 10 16.0934 0 0
2:52 pm 14:52 Cloudy with Rain 55 12.8 50 10 83 83 WNW 15 24 30.08 1019 4 6.43736 0.02 0.508
3:52 pm 15:52 Cloudy 55 12.8 50 10 83 83 WNW 12 19 30.09 1019 10 16.0934 0.05 1.27
4:41 pm 16:41 Cloudy 55 12.8 50 10 83 83 WNW 7 11 30.1 1019 10 16.0934 0.001 0.001
4:52 pm 16:52 Cloudy 55 12.8 50 10 83 83 WNW 9 15 30.1 1019 10 16.0934 0.001 0.001
5:49 pm 17:49 Cloudy 55 13 48 9 77 77 NW 14 22 30.12 1020 10 16.0934 0 0
5:52 pm 17:52 Cloudy 55 12.8 47 8.3 74 74 NW 13 20 30.11 1020 10 16.0934 0 0
6:13 pm 18:13 Cloudy 54 12.2 45 7.2 72 72 NNW 16 26 30.13 1020 10 16.0934 0 0
6:52 pm 18:52 Cloudy 53 11.7 45 7.2 74 74 NNW 15 24 30.14 1021 10 16.0934 0 0
7:07 pm 19:07 Cloudy 53 11.7 44 6.7 72 72 NNW 15 24 30.15 1021 10 16.0934 0 0
7:52 pm 19:52 Cloudy 52 11.1 44 6.7 75 75 NW 12 19 30.17 1022 10 16.0934 0 0
8:52 pm 20:52 Partly Cloudy 51 10.6 43 6.1 74 74 NW 10 17 30.19 1022 10 16.0934 0 0
9:52 pm 21:52 Clear 48 8.9 42 5.6 80 80 WNW 5 7 30.21 1023 10 16.0934 0 0
10:52 pm 22:52 Partly Cloudy 46 7.8 42 5.6 86 86 W 5 7 30.22 1023 10 16.0934 0 0
11:52 pm 23:52 Clear 45 7.2 41 5 86 86 WNW 7 11 30.22 1024 10 16.0934 0 0

Powered by AerisWeather